Flag Weather past 2 weeks in Brussels, Belgium

Now
58 °F

Cool.


Feels Like: 58 °F
Forecast: 52 / 65 °F
Wind: 3 mph from South

Location: Uccle

Current Time: Oct 30, 2014 at 7:02:40 PM

Latest Report: Oct 30, 2014 at 6:00 PM


Visibility: N/A

Pressure: 30.19 "Hg

Humidity: 89%

Dew point: 55 °F

Location of BrusselsLocation

Historic Weather in Brussels — Graph

°F

Brussels temperature yesterday

Maximum temperature yesterday: 53 °F (at 10:00 PM)
Minimum temperature yesterday: 48 °F (at 4:00 AM)
Average temperature yesterday: 50 °F

Past Weeks' High & Low Weather Summary

 TemperatureHumidityPressure
High75 °F (Oct 18, 4:00 PM)96% (Oct 25, 10:00 AM)30.28 "Hg (Oct 25, 10:00 AM)
Low45 °F (Oct 22, 7:00 AM)57% (Oct 18, 4:00 PM)29.58 "Hg (Oct 21, 2:00 PM)
Average55 °F84%30.04 "Hg
* Reported Oct 15 6:00 PM — Oct 30 5:00 PM, Brussels, Weather by CustomWeather, © 2014

Note: Actual official high and low records may vary slightly from our data, if they occured in-between our weather recording intervals... More about our weather records

Advertising

Brussels weather history for previous 24 hours

 ConditionsComfort  
Time TempWeatherWind HumidityBarometerVisibility
5:00 PM
Oct 30
60 °FCool.3 mph83%30.18 "HgN/A
4:00 PM63 °FMild.3 mph79%30.18 "HgN/A
3:00 PM63 °FMild.5 mph76%30.18 "HgN/A
2:00 PM61 °FCool.5 mph85%30.18 "HgN/A
1:00 PM58 °FCool.5 mph90%30.19 "HgN/A
12:00 PM57 °FCool.3 mph92%30.20 "HgN/A
11:00 AM56 °FCool.2 mph94%30.19 "HgN/A
10:00 AM54 °FCool.3 mph95%30.19 "HgN/A
9:00 AM53 °FCool.3 mph95%30.18 "HgN/A
8:00 AM52 °FCool.2 mph95%30.17 "HgN/A
7:00 AM52 °FCool.2 mph96%30.16 "HgN/A
6:00 AM52 °FCool.2 mph96%30.16 "HgN/A
5:00 AM52 °FCool.2 mph95%30.15 "HgN/A
3:00 AM53 °FCool.2 mph96%30.15 "HgN/A
2:00 AM53 °FCool.2 mph96%30.14 "HgN/A
1:00 AM53 °FCool.2 mph96%30.14 "HgN/A
12:00 AM53 °FCool.2 mph96%30.13 "HgN/A
11:00 PM
Oct 29
53 °FCool.2 mph96%30.13 "HgN/A
10:00 PM53 °FCool.2 mph95%30.13 "HgN/A
9:00 PM53 °FCool.1 mph95%30.11 "HgN/A
8:00 PM53 °FCool.1 mph95%30.11 "HgN/A
7:00 PM53 °FCool.2 mph95%30.10 "HgN/A
Weather by CustomWeather, © 2014

See weather overviewHow to use our weather pages